Location: Caltech
(34.1382°N, 118.1253°W)
Time: 17:48:29
(UTC-07:00)

Cosmos 2251 Rocket - Visible Passes

Search period start: 22 October 2017 00:00
Search period end: 01 November 2017 00:00
Orbit: 764 x 793 km, 74.0° (Epoch: 22 October)

Date Brightness Start Highest point End Pass type
(mag) Time Alt. Az. Time Alt. Az. Time Alt. Az.
22 Oct 4.7 06:03:41 10° N 06:08:52 46° ENE 06:13:59 10° SE visible
22 Oct 4.6 18:57:56 10° SSE 19:01:59 23° E 19:06:04 10° NE visible
22 Oct 5.0 20:39:11 10° SW 20:43:59 35° WNW 20:46:42 22° NNW visible
23 Oct 5.6 05:30:12 10° N 05:34:50 28° ENE 05:39:25 10° SE visible
23 Oct 4.0 20:04:48 10° SSW 20:10:00 58° WNW 20:15:16 10° N visible
24 Oct 6.2 04:57:06 10° NNE 05:00:42 18° ENE 05:04:17 10° ESE visible
24 Oct 3.4 19:30:48 10° SSW 19:36:05 84° ESE 19:41:26 10° NNE visible
24 Oct 6.6 21:18:08 10° WNW 21:19:03 10° WNW 21:19:58 10° NW visible
25 Oct 6.6 04:25:09 10° NE 04:26:28 11° ENE 04:27:47 10° ENE visible
25 Oct 3.5 06:04:01 10° NNW 06:09:25 83° WSW 06:14:45 10° SSE visible
25 Oct 3.7 18:57:10 10° S 19:02:15 50° ESE 19:07:23 10° NNE visible
25 Oct 6.1 20:41:21 10° WSW 20:44:48 17° WNW 20:48:18 10° NNW visible
26 Oct 4.1 05:30:11 10° N 05:35:30 60° ENE 05:40:46 10° SSE visible
26 Oct 4.4 18:23:58 10° SSE 18:28:30 29° E 18:33:03 10° NE visible
26 Oct 5.5 20:06:11 10° WSW 20:10:40 28° WNW 20:15:13 10° N visible
27 Oct 5.0 04:56:34 10° N 05:01:30 36° ENE 05:06:24 10° SE visible
27 Oct 4.7 06:39:24 10° NW 06:43:30 23° W 06:47:36 10° SSW visible
27 Oct 4.6 19:31:35 10° SW 19:36:38 45° WNW 19:41:45 10° N visible
28 Oct 5.7 04:23:15 10° NNE 04:27:26 23° ENE 04:31:35 10° ESE visible
28 Oct 4.0 06:04:51 10° NW 06:09:47 38° W 06:14:40 10° SSW visible
28 Oct 3.7 18:57:23 10° SSW 19:02:40 76° WNW 19:08:02 10° NNE visible
29 Oct 6.3 03:51:27 12° NE 03:53:15 14° ENE 03:56:00 10° E visible
29 Oct 3.5 05:32:05 19° NNW 05:35:59 64° WSW 05:41:16 10° S visible
29 Oct 3.6 18:23:34 10° S 18:28:48 65° ESE 18:34:06 10° NNE visible
29 Oct 6.4 20:08:56 10° W 20:11:34 14° WNW 20:14:12 10° NNW visible
30 Oct 3.6 05:00:51 53° N 05:02:07 77° ENE 05:07:27 10° SSE visible
30 Oct 5.9 19:33:18 10° WSW 19:37:22 22° WNW 19:41:29 10° NNW visible
31 Oct 4.8 04:29:30 38° ESE 04:29:30 38° ESE 04:33:17 10° SE visible
31 Oct 4.9 06:10:06 17° W 06:10:06 17° W 06:13:25 10° SW visible
31 Oct 5.2 18:58:27 10° SW 19:03:17 35° WNW 19:08:11 10° N visible
